Petersburg, AK

2:33 PM AKDT on September 24, 2017 (GMT -0800)
Johnson Petersburg

Weather History for PAPG - January, 2014

Change the Weather History Date:

Friday, January 3, 2014

  Actual Average Record
Temperature  
Mean Temperature 32 °F -  
Max Temperature 33 °F 32 °F 49 °F (1985)
Min Temperature 30 °F 24 °F 6 °F (2004)
Degree Days  
Heating Degree Days 34    
Moisture  
Dew Point 30 °F    
Average Humidity 91    
Maximum Humidity 100    
Minimum Humidity 87    
Precipitation  
Precipitation 0.00 in - - ()
Sea Level Pressure  
Sea Level Pressure 30.36 in    
Wind  
Wind Speed 2 mph (SSW)    
Max Wind Speed 7 mph    
Max Gust Speed -    
Visibility 2 miles    
Events Fog    
Averages and records for this station are not official NWS values.
T = Trace of Precipitation, MM = Missing Value Source: NWS Daily Summary

Daily Weather History Graph

Daily Weather History Graph

Search for Another Location

Airport or City:

Trip Planner

Search our weather history database for the weather conditions in past years. The results will help you decide how hot, cold, wet, or windy it might be!

Date:

Astronomy

Jan. 03, 2014 Rise Set
Actual Time 8:27 AM AKST 3:25 PM AKST
Civil Twilight 7:39 AM AKST 4:13 PM AKST
Nautical Twilight 6:49 AM AKST 5:03 PM AKST
Astronomical Twilight 6:03 AM AKST 5:50 PM AKST
Moon 9:19 AM AKST (1/3) 7:27 PM AKST (1/3)
Length of Visible Light 8h 34m
Length of Day
6h 58m
Waxing Crescent, 9% of the Moon is Illuminated
Jan 3
Waxing Crescent
Jan 7
First Quarter
Jan 15
Full
Jan 23
Last Quarter
Jan 30
New

Hourly Weather History & Observations

Time (AKST) Temp. Windchill Dew Point Humidity Pressure Visibility Wind Dir Wind Speed Gust Speed Precip Events Conditions
5:55 AM 33.8 °F 30.8 °F 32.0 °F 93% 30.21 in 10.0 mi East 3.5 mph - N/A   Overcast
6:55 AM 33.8 °F 27.7 °F 30.2 °F 87% 30.25 in 7.0 mi SW 6.9 mph - N/A Fog Patches of Fog
7:55 AM 33.8 °F 30.8 °F 30.2 °F 87% 30.28 in 0.8 mi South 3.5 mph - N/A   Overcast
8:25 AM 33.8 °F - 30.2 °F 87% 30.30 in 2.0 mi Calm Calm - N/A   Overcast
8:55 AM 33.8 °F - 30.2 °F 87% 30.31 in 7.0 mi Calm Calm - N/A Fog Patches of Fog
9:31 AM 32.0 °F 27.5 °F 30.2 °F 93% 30.32 in 0.5 mi SSW 4.6 mph - N/A Fog Fog
9:55 AM 33.8 °F 30.8 °F 30.2 °F 87% 30.33 in 0.8 mi SW 3.5 mph - N/A   Mostly Cloudy
10:55 AM 32.0 °F - 30.2 °F 93% 30.35 in 0.5 mi Calm Calm - N/A Fog Fog
11:17 AM 32.0 °F - 30.2 °F 93% 30.35 in 2.0 mi Calm Calm - N/A   Mostly Cloudy
11:25 AM 32.0 °F - 30.2 °F 93% 30.35 in 7.0 mi Calm Calm - N/A Fog Patches of Fog
11:55 AM 33.8 °F 30.8 °F 30.2 °F 87% 30.36 in 7.0 mi SSW 3.5 mph - N/A Fog Patches of Fog
1:10 PM 33.8 °F - 30.2 °F 87% 30.38 in 0.8 mi Calm Calm - N/A   Mostly Cloudy
1:55 PM 33.8 °F - 30.2 °F 87% 30.38 in 0.5 mi Calm Calm - N/A Fog Fog
2:48 PM 32.0 °F - 30.2 °F 93% 30.40 in 0.5 mi Calm Calm - N/A Fog Fog
3:48 PM 32.0 °F 28.7 °F 30.2 °F 93% 30.40 in 0.2 mi SW 3.5 mph - N/A Fog Fog
4:45 PM 32.0 °F - 30.2 °F 93% 30.41 in 0.5 mi Calm Calm - N/A Fog Fog
5:47 PM 32.0 °F 28.7 °F 30.2 °F 93% 30.43 in 0.2 mi SW 3.5 mph - N/A Fog Fog
6:50 PM 32.0 °F - 30.2 °F 93% 30.42 in 0.5 mi Calm Calm - N/A Fog Fog
7:50 PM 32.0 °F 27.5 °F 30.2 °F 93% 30.41 in 0.5 mi SSW 4.6 mph - N/A Fog Fog
8:48 PM 30.2 °F - 30.2 °F 100% 30.42 in 0.5 mi Calm Calm - N/A Fog Fog
9:45 PM 32.0 °F - 30.2 °F 93% 30.43 in 0.5 mi Calm Calm - N/A Fog Fog